FW5134 Weather Reports


time (UTC)temp
F
wind
direction
speed
knots
gust
knots
rain 1hr
in
rain 24hr
in
rain mn
in
humidity
%
barometer
mb
20260504201514 60 277 0.0 0.0 0.00 0.02 0.02 94 1011.6
20260504201512 60 277 0.0 0.0 0.00 0.02 0.02 94 1011.5
20260504200029 60 346 0.0 0.0 0.00 0.02 0.02 94 1011.3
20260504194632 60 346 0.0 0.0 0.00 0.02 0.02 94 1011.2
20260504193005 61 345 0.0 0.0 0.00 0.02 0.02 93 1011.0
20260504191505 61 310 0.0 2.6 0.00 0.02 0.02 93 1010.8
20260504190110 61 250 0.0 3.5 0.00 0.02 0.02 93 1010.6
20260504184610 61 201 0.0 3.5 0.00 0.02 0.02 93 1010.4
20260504183019 62 182 0.9 3.5 0.00 0.02 0.02 93 1010.3
20260504181612 62 77 0.0 3.5 0.00 0.02 0.02 93 1010.3
20260504180126 62 200 0.0 2.6 0.00 0.02 0.02 93 1010.3
20260504174633 62 248 0.9 6.1 0.00 0.02 0.02 93 1010.4
20260504173051 62 265 0.9 5.2 0.01 0.02 0.02 92 1010.6
20260504171622 62 200 0.9 6.1 0.01 0.02 0.02 92 1010.5
20260504170145 63 175 2.6 6.1 0.01 0.02 0.02 92 1010.7
20260504160105 63 202 0.0 4.3 0.01 0.01 0.01 89 1011.3
20260504150126 65 184 1.7 3.5 0.00 0.00 0.00 86 1011.2
20260504110109 72 178 0.9 5.2 0.00 0.00 0.00 69 1011.7
20260504081620 68 269 2.6 6.1 0.00 0.00 0.00 73 1012.0
20260504080131 67 180 0.9 5.2 0.00 0.00 0.00 76 1012.4
20260504070115 65 197 0.0 2.6 0.00 0.00 0.00 83 1012.4
20260504060110 59 276 0.0 1.7 0.00 0.00 0.00 92 1012.8
20260504050123 57 246 0.0 0.0 0.00 0.00 0.00 91 1012.8
20260504044609 57 246 0.0 0.9 0.00 0.00 0.00 91 1012.9
20260504043124 57 245 0.0 0.9 0.00 0.00 0.00 91 1012.8
20260504041625 57 245 0.0 0.9 0.00 0.00 0.00 90 1012.9
20260504040039 57 245 0.0 0.0 0.00 0.00 0.00 90 1013.0
20260504034625 58 246 0.0 0.9 0.00 0.00 0.00 91 1013.2
20260504033110 58 246 0.0 1.7 0.00 0.00 0.00 91 1013.3
20260504031510 58 199 0.0 1.7 0.00 0.00 0.00 90 1013.3
20260504030034 58 173 0.0 1.7 0.00 0.00 0.00 90 1013.4
20260504024622 58 169 0.0 1.7 0.00 0.00 0.00 90 1013.5
20260504023036 57 202 0.0 0.0 0.00 0.00 0.00 91 1013.6
20260504021617 57 205 0.0 0.0 0.00 0.00 0.00 91 1013.5
20260504020051 57 207 0.0 0.0 0.00 0.00 0.00 91 1013.6
20260504014544 57 207 0.0 0.0 0.00 0.00 0.00 90 1013.6
20260504013054 57 207 0.0 0.0 0.00 0.00 0.00 90 1013.7
20260504011517 57 207 0.0 0.0 0.00 0.00 0.00 90 1013.7
20260504010140 57 207 0.0 0.0 0.00 0.00 0.00 89 1014.0
20260504004519 57 207 0.0 0.0 0.00 0.00 0.00 89 1014.1
20260504003033 58 207 0.0 0.0 0.00 0.00 0.00 89 1014.0
20260504001614 58 207 0.0 0.0 0.00 0.00 0.00 89 1014.2
20260504000019 58 207 0.0 0.0 0.00 0.00 0.00 89 1014.4
20260503234619 58 207 0.0 0.0 0.00 0.00 0.00 90 1014.5
20260503233042 58 207 0.0 0.0 0.00 0.00 0.00 90 1014.6
20260503231502 58 207 0.0 0.0 0.00 0.00 0.00 90 1014.8
20260503230138 58 207 0.0 0.0 0.00 0.00 0.00 89 1014.9
20260503224526 59 207 0.0 0.0 0.00 0.00 0.00 89 1015.0
20260503223036 59 207 0.0 0.0 0.00 0.00 0.00 89 1015.2
20260503221557 59 207 0.0 0.0 0.00 0.00 0.00 89 1015.2
20260503220011 59 176 0.0 0.0 0.00 0.00 0.00 89 1015.3
20260503214557 59 176 0.0 0.0 0.00 0.00 0.00 88 1015.5
20260503213018 59 176 0.0 0.0 0.00 0.00 0.00 88 1015.4
20260503211638 59 176 0.0 0.0 0.00 0.00 0.00 88 1015.5
20260503210005 60 176 0.0 0.0 0.00 0.00 0.00 88 1015.5
20260503204557 60 176 0.0 0.0 0.00 0.00 0.00 87 1015.8
20260503203026 60 176 0.0 0.0 0.00 0.00 0.00 87 1015.8